Radar is unstable, so pay attention to the date and time in the image

Latest  Newer  Older  Last 2 hours animation  Current image  Latest image  Summary per 24h (testing)  Summary per 7d (testing) 
Cloud coverage sat images  Infrared sat images 
Real-time lightning map Aurora Forecast

All time is UTC (add 2 hours in wintertime, 3 hours in DST for Latvia local time)

2022/08/12 00:20 EVRA 120020Z 18004KT 9999 BCFG NSC 12/11 Q1025 NOSIG
2022/08/12 00:20 EVGA 120020Z AUTO VRB01KT CAVOK 12/12 Q1025
2022/08/12 00:20 EVLA 120020Z AUTO 11003KT CAVOK 10/09 Q1025
2022/08/12 00:20 EVVA 120020Z AUTO 00000KT 0450 FG NSC 13/13 Q1024
2022/08/12 00:20 EYKA 120020Z AUTO 07001KT 9999 NCD 13/10 Q1025
2022/08/12 00:20 EYPA 120020Z VRB01KT CAVOK 12/11 Q1026
2022/08/11 23:50 EYSA 112350Z AUTO 00000KT 9999NDV NCD 13/12 Q1026
2022/08/12 00:20 EYVI 120020Z VRB01KT CAVOK 17/12 Q1025 NOSIG
2022/08/11 23:50 EEEI 112350Z 22006KT CAVOK 16/15 Q1022
2022/08/11 15:20 EEKA 111520Z 22009KT 160V270 CAVOK 23/15 Q1021
2022/08/12 00:20 EEKE 120020Z AUTO 23005KT 180V270 9999NDV NCD 18/17 Q1023
2022/08/12 00:20 EEPU 120020Z AUTO 23006KT 9999 NCD 16/15 Q1023
2022/08/12 00:20 EETN 120020Z VRB02KT 9999 FEW006 16/15 Q1022
2022/08/12 00:20 EETU 120020Z AUTO 23004KT 200V260 9999 NCD 14/10 Q1024
CD  STATION         ICAO  IATA  SYNOP   LAT     LONG   ELEV   M  N  V  U  A  C
   RIGA AIRPORT     EVRA               56 55N  023 58E   10   X     T          6 LV
   LIELVARDE        EVGA               56 47N  024 51E   61   X     T          7 LV
   LIEPAJA INTL     EVLA        26406  56 31N  021 06E    4   X                8 LV
   VENTPILS         EVVA               57 21N  021 33E    6   X                8 LV
   KAUNAS           EYKA               54 54N  023 55E   77   X     T          6 LT
   PALANGA INTL     EYPA               55 55N  021 03E   10   X                6 LT
   SIAULIAI INTL    EYSA               55 54N  023 24E  135   X     T          6 LT
   VILNIUS INTL     EYVI        26730  54 38N  025 17E  197   X     T          6 LT
   AMARI AIR BASE   EEEI               59 16N  024 12E   19   X     T          7 EE
   KARDLA           EEKA        26116  58 59N  022 50E    4   X                8 EE
   KURESSAARE       EEKE               58 14N  022 31E    4   X                8 EE
   PARNU            EEPU               58 25N  024 28E   14   X                8 EE
   TALLINN          EETN        26038  59 24N  024 49E   40   X     T          8 EE
   TARTU            EETU               58 19N  026 41E   67   X                8 EE

!   CD = 2 letter state (province) abbreviation
!   STATION = 16 character station long name
!   ICAO = 4-character international id
!   IATA = 3-character (FAA) id
!   SYNOP = 5-digit international synoptic number
!   LAT = Latitude (degrees minutes)
!   LON = Longitude (degree minutes)
!   ELEV = Station elevation (meters)
!   M = METAR reporting station.   Also Z=obsolete? site
!   N = NEXRAD (WSR-88D) Radar site
!   V = Aviation-specific flag (V=AIRMET/SIGMET end point, A=ARTCC T=TAF U=T+V)
!   U = Upper air (rawinsonde=X) or Wind Profiler (W) site
!   A = Auto (A=ASOS, W=AWOS, M=Meso, H=Human, G=Augmented) (H/G not yet impl.)
!   C = Office type F=WFO/R=RFC/C=NCEP Center
!   Digit that follows is a priority for plotting (0=highest)
!   Country code (2-char) is last column


rain/snow radar image from www.meteo.lv and METAR data from weather.noaa.gov